Monroe, MI

1:39 PM EDT on June 22, 2018 (GMT -0400)
Custer

Weather History for KTTF - June, 2018

Change the Weather History Date:

Thursday, June 14, 2018

  Actual Average Record
Temperature  
Mean Temperature 68 °F -  
Max Temperature 82 °F 81 °F 97 °F (1987)
Min Temperature 54 °F 60 °F 43 °F (1933)
Cooling Degree Days 3    
Growing Degree Days 18 (Base 50)    
Moisture  
Dew Point 48 °F    
Average Humidity 49    
Maximum Humidity 92    
Minimum Humidity 23    
Precipitation  
Precipitation 0.00 in - - ()
Sea Level Pressure  
Sea Level Pressure 30.02 in    
Wind  
Wind Speed 6 mph (NW)    
Max Wind Speed 17 mph    
Max Gust Speed 26 mph    
Visibility 10 miles    
Events      
Averages and records for this station are not official NWS values.
T = Trace of Precipitation, MM = Missing Value Source: NWS Daily Summary

Daily Weather History Graph

Daily Weather History Graph

Search for Another Location

Airport or City:

Astronomy

Jun. 14, 2018 Rise Set
Actual Time 5:57 AM EDT 9:10 PM EDT
Civil Twilight 5:23 AM EDT 9:44 PM EDT
Nautical Twilight 4:39 AM EDT 10:29 PM EDT
Astronomical Twilight 3:46 AM EDT 11:22 PM EDT
Moon 6:55 AM EDT (6/14) 10:09 PM EDT (6/14)
Length of Visible Light 16h 21m
Length of Day
15h 12m
New Moon, 1% of the Moon is Illuminated
Jun 14
New Moon
Jun 20
First Quarter
Jun 28
Full
Jul 6
Last Quarter
Jul 12
New

Hourly Weather History & Observations

Time (EDT) Temp. Dew Point Humidity Pressure Visibility Wind Dir Wind Speed Gust Speed Precip Events Conditions
12:15 AM 65.7 °F 50.5 °F 58% 29.98 in 10.0 mi NNW 4.6 mph - N/A   Clear
12:35 AM 64.8 °F 51.1 °F 61% 29.98 in 10.0 mi NW 5.8 mph - N/A   Clear
12:55 AM 64.9 °F 50.9 °F 60% 29.99 in 10.0 mi NNW 4.6 mph - N/A   Clear
1:15 AM 65.3 °F 50.2 °F 58% 29.99 in 10.0 mi NNW 5.8 mph - N/A   Clear
1:35 AM 64.9 °F 50.0 °F 58% 29.99 in 10.0 mi NNW 5.8 mph - N/A   Clear
1:55 AM 63.7 °F 50.5 °F 62% 30.00 in 10.0 mi NW 8.1 mph - N/A   Clear
2:16 AM 62.6 °F 51.1 °F 66% 29.99 in 10.0 mi NW 8.1 mph - N/A   Clear
2:36 AM 61.2 °F 51.1 °F 69% 30.00 in 10.0 mi NW 5.8 mph - N/A   Clear
2:56 AM 59.9 °F 51.1 °F 73% 30.00 in 10.0 mi West 4.6 mph - N/A   Clear
3:16 AM 59.7 °F 52.0 °F 76% 30.00 in 10.0 mi Calm Calm - N/A   Clear
3:36 AM 58.5 °F 51.3 °F 77% 30.00 in 10.0 mi Calm Calm - N/A   Clear
3:56 AM 57.9 °F 52.3 °F 82% 29.99 in 10.0 mi Calm Calm - N/A   Clear
4:16 AM 56.7 °F 51.8 °F 84% 30.00 in 10.0 mi Calm Calm - N/A   Clear
4:36 AM 56.1 °F 52.5 °F 88% 30.01 in 10.0 mi Calm Calm - N/A   Clear
4:56 AM 55.8 °F 52.7 °F 89% 30.01 in 10.0 mi Calm Calm - N/A   Clear
5:16 AM 56.5 °F 52.3 °F 86% 30.01 in 10.0 mi Calm Calm - N/A   Clear
5:36 AM 54.1 °F 51.8 °F 92% 30.01 in 10.0 mi Calm Calm - N/A   Clear
5:56 AM 56.7 °F 52.0 °F 84% 30.01 in 10.0 mi Calm Calm - N/A   Clear
6:16 AM 54.7 °F 51.8 °F 90% 30.01 in 10.0 mi Calm Calm - N/A   Clear
6:37 AM 56.7 °F 52.0 °F 84% 30.02 in 10.0 mi Calm Calm - N/A   Clear
6:57 AM 57.0 °F 53.4 °F 88% 30.03 in 10.0 mi Calm Calm - N/A   Clear
7:17 AM 59.5 °F 53.4 °F 80% 30.04 in 10.0 mi NW 5.8 mph - N/A   Clear
7:37 AM 61.7 °F 52.7 °F 72% 30.04 in 10.0 mi WNW 5.8 mph - N/A   Clear
7:57 AM 63.5 °F 52.9 °F 68% 30.04 in 10.0 mi West 4.6 mph - N/A   Clear
8:17 AM 66.2 °F 50.5 °F 57% 30.05 in 10.0 mi West 5.8 mph - N/A   Clear
8:37 AM 67.8 °F 50.0 °F 53% 30.05 in 10.0 mi West 8.1 mph - N/A   Clear
8:57 AM 69.6 °F 49.6 °F 49% 30.05 in 10.0 mi WNW 8.1 mph - N/A   Clear
9:17 AM 71.2 °F 49.5 °F 46% 30.05 in 10.0 mi WNW 10.4 mph 16.1 mph N/A   Clear
9:37 AM 72.9 °F 49.5 °F 44% 30.05 in 10.0 mi WNW 10.4 mph 18.4 mph N/A   Clear
9:57 AM 74.7 °F 49.1 °F 40% 30.05 in 10.0 mi WNW 11.5 mph 18.4 mph N/A   Clear
10:17 AM 75.6 °F 48.0 °F 38% 30.04 in 10.0 mi WNW 13.8 mph 19.6 mph N/A   Clear
10:38 AM 76.6 °F 47.7 °F 36% 30.04 in 10.0 mi WNW 11.5 mph 19.6 mph N/A   Clear
10:58 AM 77.4 °F 47.7 °F 35% 30.04 in 10.0 mi WNW 10.4 mph 18.4 mph N/A   Clear
11:18 AM 78.3 °F 48.2 °F 35% 30.04 in 10.0 mi WNW 11.5 mph 17.3 mph N/A   Clear
11:38 AM 79.2 °F 47.7 °F 33% 30.04 in 10.0 mi WNW 13.8 mph 21.9 mph N/A   Clear
11:58 AM 79.7 °F 46.0 °F 30% 30.04 in 10.0 mi NW 15.0 mph 23.0 mph N/A   Clear
12:18 PM 80.2 °F 45.9 °F 30% 30.04 in 10.0 mi NNW 11.5 mph 23.0 mph N/A   Clear
12:38 PM 80.6 °F 45.5 °F 29% 30.04 in 10.0 mi NW 15.0 mph 25.3 mph N/A   Clear
12:58 PM 81.1 °F 44.1 °F 27% 30.04 in 10.0 mi WNW 16.1 mph 25.3 mph N/A   Clear
1:18 PM 81.7 °F 44.8 °F 27% 30.04 in 10.0 mi WNW 17.3 mph 26.5 mph N/A   Clear
1:38 PM 81.9 °F 45.3 °F 28% 30.04 in 10.0 mi NW 11.5 mph 21.9 mph N/A   Clear
1:58 PM 81.7 °F 44.1 °F 26% 30.03 in 10.0 mi NW 6.9 mph 21.9 mph N/A   Clear
2:18 PM 81.9 °F 41.9 °F 24% 30.03 in 10.0 mi NNW 8.1 mph - N/A   Clear
2:39 PM 81.9 °F 41.0 °F 23% 30.03 in 10.0 mi NW 6.9 mph 25.3 mph N/A   Clear
2:59 PM 82.2 °F 41.4 °F 23% 30.02 in 10.0 mi NW 15.0 mph 23.0 mph N/A   Clear
3:19 PM 82.2 °F 42.1 °F 24% 30.02 in 10.0 mi NNW 8.1 mph 18.4 mph N/A   Clear
3:39 PM 82.8 °F 43.5 °F 25% 30.02 in 10.0 mi NW 12.7 mph 21.9 mph N/A   Clear
3:59 PM 82.8 °F 42.8 °F 24% 30.02 in 10.0 mi NNW 12.7 mph 20.7 mph N/A   Clear
4:19 PM 82.2 °F 40.6 °F 23% 30.01 in 10.0 mi NNW 6.9 mph 24.2 mph N/A   Clear
4:39 PM 82.9 °F 42.8 °F 24% 30.01 in 10.0 mi NNW 12.7 mph 19.6 mph N/A   Clear
4:59 PM 82.6 °F 41.0 °F 23% 30.02 in 10.0 mi NNW 10.4 mph 20.7 mph N/A   Clear
5:19 PM 81.9 °F 40.8 °F 23% 30.02 in 10.0 mi NNW 5.8 mph 23.0 mph N/A   Clear
5:39 PM 80.8 °F 40.5 °F 24% 30.01 in 10.0 mi NNW 8.1 mph 23.0 mph N/A   Clear
5:59 PM 80.8 °F 40.8 °F 24% 30.01 in 10.0 mi NNW 9.2 mph - N/A   Clear
6:19 PM 80.4 °F 42.8 °F 26% 30.01 in 10.0 mi NW 6.9 mph 19.6 mph N/A   Clear
6:39 PM 81.0 °F 41.7 °F 25% 30.00 in 10.0 mi NNW 10.4 mph 21.9 mph N/A   Clear
7:00 PM 80.1 °F 42.4 °F 26% 30.00 in 10.0 mi NW 5.8 mph - N/A   Clear
7:15 PM 79.7 °F 42.4 °F 27% 30.00 in 10.0 mi NNW 6.9 mph - N/A   Clear
7:35 PM 78.6 °F 43.9 °F 29% 29.99 in 10.0 mi NW 4.6 mph - N/A   Clear
7:55 PM 77.9 °F 44.6 °F 31% 29.99 in 10.0 mi NW 3.5 mph - N/A   Clear
8:15 PM 77.0 °F 46.6 °F 34% 29.99 in 10.0 mi Calm Calm - N/A   Clear
8:35 PM 73.4 °F 48.7 °F 42% 29.99 in 10.0 mi Calm Calm - N/A   Clear
8:55 PM 71.4 °F 50.2 °F 47% 29.99 in 10.0 mi Calm Calm - N/A   Clear
9:15 PM 69.6 °F 49.1 °F 48% 29.99 in 10.0 mi Calm Calm - N/A   Clear
9:35 PM 67.1 °F 56.5 °F 69% 29.99 in 10.0 mi Calm Calm - N/A   Clear
9:55 PM 66.4 °F 53.8 °F 64% 29.99 in 10.0 mi Calm Calm - N/A   Clear